Home   Weather   Metlakatla   Past weeks

Flag for USA Past Weather in Metlakatla, Alaska, USA — Yesterday and Last 2 Weeks

49 °F

Mostly cloudy.

Feels Like: 45 °F
Forecast: 48 / 49 °F
Wind: 10 mph from Southeast

Location: Annette Island

Current Time: Oct 20, 2016 at 11:50:10 AM

Latest Report: Oct 20, 2016 at 10:53 AM

Visibility: 10 mi

Pressure: 29.61 "Hg

Humidity: 86%

Dew Point: 45 °F

Location of MetlakatlaLocation

Past Weather in Metlakatla — Graph


Metlakatla Temperature Yesterday

Maximum temperature yesterday: 52 °F (at 2:53 PM)
Minimum temperature yesterday: 48 °F (at 10:53 AM)
Average temperature yesterday: 51 °F

High & Low Weather Summary for the Past Weeks

High60 °F (Oct 5, 11:53 AM)93% (Oct 7, 6:53 PM)30.21 "Hg (Oct 7, 6:53 PM)
Low33 °F (Oct 11, 5:53 AM)28% (Oct 12, 4:53 PM)29.08 "Hg (Oct 14, 5:53 AM)
Average49 °F69%29.72 "Hg
* Reported Oct 5 10:53 AM — Oct 20 10:53 AM, Metlakatla, Weather by CustomWeather, © 2016

Note: Actual official high and low records may vary slightly from our data, if they occured in-between our weather recording intervals... More about our weather records


Metlakatla Weather History for the Previous 24 Hours

Scroll right to see more
Time TempWeatherWind HumidityBarometerVisibility
10:53 AM
Thu, Oct 20
49 °FMostly cloudy.10 mph86%29.61 "Hg10 mi
9:53 AM48 °FLight rain. Fog.10 mph83%29.59 "Hg3 mi
8:53 AM47 °FLight rain. Cloudy.9 mph83%29.59 "Hg7 mi
7:53 AM47 °FLight rain. Overcast.7 mph83%29.58 "Hg10 mi
6:53 AM48 °FLight rain. Mostly cloudy.10 mph80%29.59 "Hg10 mi
5:53 AM49 °FLight rain. Overcast.8 mph77%29.59 "Hg10 mi
4:53 AM48 °FLight rain. Overcast.8 mph83%29.61 "Hg10 mi
3:53 AM49 °FLight rain. Mostly cloudy.12 mph80%29.62 "Hg10 mi
2:53 AM49 °FLight rain. Mostly cloudy.12 mph80%29.65 "Hg10 mi
1:53 AM49 °FLight rain. Overcast.12 mph84%29.67 "Hg7 mi
12:53 AM50 °FHeavy rain. Overcast.10 mph77%29.69 "Hg5 mi
11:53 PM
Wed, Oct 19
51 °FMostly cloudy.10 mph71%29.68 "Hg10 mi
10:53 PM50 °FOvercast.10 mph80%29.70 "Hg10 mi
9:53 PM50 °FLight rain. Overcast.9 mph83%29.72 "Hg6 mi
8:53 PM51 °FMostly cloudy.14 mph80%29.73 "Hg10 mi
7:53 PM51 °FOvercast.12 mph83%29.74 "Hg10 mi
6:53 PM51 °FLight rain. Overcast.12 mph83%29.75 "Hg10 mi
5:53 PM52 °FMostly cloudy.12 mph80%29.75 "Hg10 mi
4:53 PM51 °FMostly cloudy.13 mph83%29.75 "Hg10 mi
3:53 PM52 °FMostly cloudy.17 mph80%29.75 "Hg10 mi
2:53 PM52 °FLight rain. Mostly cloudy.15 mph83%29.74 "Hg10 mi
1:53 PM51 °FLight rain. Overcast.15 mph83%29.73 "Hg10 mi
12:53 PM51 °FOvercast.21 mph83%29.73 "Hg10 mi
12:00 PM49 °FLight rain. Fog.20 mph86%29.73 "Hg2 mi
Weather by CustomWeather, © 2016

See weather overviewHow to use our weather pages